Location: Warszawa
(52.2500°N, 21.0000°E)
Time: 09:11:45
(UTC+02:00)

Gurwin Techsat 1B - Pass Details

Date: 29 April 2024
Orbit: 811 x 812 km, 98.9° (Epoch: 20 May)

Event Time Altitude Azimuth Distance (km) Brightness Sun altitude
Rises 03:46:07 0° 19° (NNE) 3,349 13.0 -11.3°
Reaches altitude 10° 03:48:35 10° 27° (NNE) 2,412 12.3 -11.0°
Maximum altitude 03:53:40 44° 99° (E) 1,124 9.7 -10.4°
Drops below altitude 10° 03:58:42 10° 170° (S) 2,395 10.8 -9.9°
Sets 04:01:09 0° 177° (S) 3,322 11.4 -9.6°
